GOES 2 [-]

Last updated on July 6, 2021, 3:23 p.m. UTC

1 10061U 77048A   21186.84980007  .00000062  00000-0  00000-0 0  9996
2 10061  10.6138 310.8517 0012266  19.3127 334.1958  0.99393124 28300
UTC
Height (km)
Latitude
Longitude
Inclination
Orbital Period
UTC large
Height (km)
Speed (km/s)
/
Latitude / Longitude
Inclination (degrees)
Orbital Period (minutes)
Azimuth
Elevation
Range (km)
Doppler Factor
iOS Compass Heading
iOS Angle